locationName,lineName,date,time,countIn,countOut
���X�X����,2_1_1,2022/4/1,0:00,4,1
���X�X����,2_1_1,2022/4/1,1:00,1,3
���X�X����,2_1_1,2022/4/1,2:00,2,1
���X�X����,2_1_1,2022/4/1,3:00,0,0
���X�X����,2_1_1,2022/4/1,4:00,0,0
���X�X����,2_1_1,2022/4/1,5:00,5,3
���X�X����,2_1_1,2022/4/1,6:00,36,19
���X�X����,2_1_1,2022/4/1,7:00,67,156
���X�X����,2_1_1,2022/4/1,8:00,67,230
���X�X����,2_1_1,2022/4/1,9:00,125,178
���X�X����,2_1_1,2022/4/1,10:00,159,302
���X�X����,2_1_1,2022/4/1,11:00,234,326
���X�X����,2_1_1,2022/4/1,12:00,267,344
���X�X����,2_1_1,2022/4/1,13:00,324,312
���X�X����,2_1_1,2022/4/1,14:00,333,316
���X�X����,2_1_1,2022/4/1,15:00,342,221
���X�X����,2_1_1,2022/4/1,16:00,360,175
���X�X����,2_1_1,2022/4/1,17:00,330,185
���X�X����,2_1_1,2022/4/1,18:00,235,165
���X�X����,2_1_1,2022/4/1,19:00,116,93
���X�X����,2_1_1,2022/4/1,20:00,82,69
���X�X����,2_1_1,2022/4/1,21:00,75,41
���X�X����,2_1_1,2022/4/1,22:00,30,7
���X�X����,2_1_1,2022/4/1,23:00,5,1
���X�X����,2_1_1,2022/4/2,0:00,2,2
���X�X����,2_1_1,2022/4/2,1:00,1,0
���X�X����,2_1_1,2022/4/2,2:00,0,0
���X�X����,2_1_1,2022/4/2,3:00,1,1
���X�X����,2_1_1,2022/4/2,4:00,2,1
���X�X����,2_1_1,2022/4/2,5:00,3,1
���X�X����,2_1_1,2022/4/2,6:00,29,28
���X�X����,2_1_1,2022/4/2,7:00,41,69
���X�X����,2_1_1,2022/4/2,8:00,71,130
���X�X����,2_1_1,2022/4/2,9:00,113,250
���X�X����,2_1_1,2022/4/2,10:00,191,431
���X�X����,2_1_1,2022/4/2,11:00,359,517
���X�X����,2_1_1,2022/4/2,12:00,379,613
���X�X����,2_1_1,2022/4/2,13:00,478,548
���X�X����,2_1_1,2022/4/2,14:00,582,527
���X�X����,2_1_1,2022/4/2,15:00,668,420
���X�X����,2_1_1,2022/4/2,16:00,592,384
���X�X����,2_1_1,2022/4/2,17:00,477,303
���X�X����,2_1_1,2022/4/2,18:00,270,157
���X�X����,2_1_1,2022/4/2,19:00,171,140
���X�X����,2_1_1,2022/4/2,20:00,134,74
���X�X����,2_1_1,2022/4/2,21:00,117,62
���X�X����,2_1_1,2022/4/2,22:00,11,18
���X�X����,2_1_1,2022/4/2,23:00,10,3
���X�X����,2_1_1,2022/4/3,0:00,4,2
���X�X����,2_1_1,2022/4/3,1:00,7,0
���X�X����,2_1_1,2022/4/3,2:00,2,1
���X�X����,2_1_1,2022/4/3,3:00,0,1
���X�X����,2_1_1,2022/4/3,4:00,0,0
���X�X����,2_1_1,2022/4/3,5:00,5,0
���X�X����,2_1_1,2022/4/3,6:00,20,26
���X�X����,2_1_1,2022/4/3,7:00,42,40
���X�X����,2_1_1,2022/4/3,8:00,79,118
���X�X����,2_1_1,2022/4/3,9:00,137,273
���X�X����,2_1_1,2022/4/3,10:00,277,525
���X�X����,2_1_1,2022/4/3,11:00,400,618
���X�X����,2_1_1,2022/4/3,12:00,545,681
���X�X����,2_1_1,2022/4/3,13:00,670,569
���X�X����,2_1_1,2022/4/3,14:00,790,566
���X�X����,2_1_1,2022/4/3,15:00,804,424
���X�X����,2_1_1,2022/4/3,16:00,661,384
���X�X����,2_1_1,2022/4/3,17:00,505,234
���X�X����,2_1_1,2022/4/3,18:00,271,199
���X�X����,2_1_1,2022/4/3,19:00,150,89
���X�X����,2_1_1,2022/4/3,20:00,62,56
���X�X����,2_1_1,2022/4/3,21:00,44,35
���X�X����,2_1_1,2022/4/3,22:00,16,0
���X�X����,2_1_1,2022/4/3,23:00,3,1
���X�X����,2_1_1,2022/4/4,0:00,2,0
���X�X����,2_1_1,2022/4/4,1:00,0,1
���X�X����,2_1_1,2022/4/4,2:00,2,0
���X�X����,2_1_1,2022/4/4,3:00,2,1
���X�X����,2_1_1,2022/4/4,4:00,2,0
���X�X����,2_1_1,2022/4/4,5:00,5,5
���X�X����,2_1_1,2022/4/4,6:00,26,23
���X�X����,2_1_1,2022/4/4,7:00,53,146
���X�X����,2_1_1,2022/4/4,8:00,67,247
���X�X����,2_1_1,2022/4/4,9:00,118,190
���X�X����,2_1_1,2022/4/4,10:00,161,293
���X�X����,2_1_1,2022/4/4,11:00,228,386
���X�X����,2_1_1,2022/4/4,12:00,317,425
���X�X����,2_1_1,2022/4/4,13:00,330,416
���X�X����,2_1_1,2022/4/4,14:00,422,319
���X�X����,2_1_1,2022/4/4,15:00,384,219
���X�X����,2_1_1,2022/4/4,16:00,330,205
���X�X����,2_1_1,2022/4/4,17:00,309,119
���X�X����,2_1_1,2022/4/4,18:00,220,145
���X�X����,2_1_1,2022/4/4,19:00,121,84
���X�X����,2_1_1,2022/4/4,20:00,117,50
���X�X����,2_1_1,2022/4/4,21:00,74,42
���X�X����,2_1_1,2022/4/4,22:00,6,6
���X�X����,2_1_1,2022/4/4,23:00,3,1
���X�X����,2_1_1,2022/4/5,0:00,1,1
���X�X����,2_1_1,2022/4/5,1:00,0,2
���X�X����,2_1_1,2022/4/5,2:00,1,0
���X�X����,2_1_1,2022/4/5,3:00,0,2
���X�X����,2_1_1,2022/4/5,4:00,0,0
���X�X����,2_1_1,2022/4/5,5:00,8,5
���X�X����,2_1_1,2022/4/5,6:00,28,22
���X�X����,2_1_1,2022/4/5,7:00,56,111
���X�X����,2_1_1,2022/4/5,8:00,83,235
���X�X����,2_1_1,2022/4/5,9:00,99,174
���X�X����,2_1_1,2022/4/5,10:00,173,312
���X�X����,2_1_1,2022/4/5,11:00,227,269
���X�X����,2_1_1,2022/4/5,12:00,258,345
���X�X����,2_1_1,2022/4/5,13:00,317,330
���X�X����,2_1_1,2022/4/5,14:00,399,236
���X�X����,2_1_1,2022/4/5,15:00,326,174
���X�X����,2_1_1,2022/4/5,16:00,254,172
���X�X����,2_1_1,2022/4/5,17:00,271,152
���X�X����,2_1_1,2022/4/5,18:00,185,91
���X�X����,2_1_1,2022/4/5,19:00,87,84
���X�X����,2_1_1,2022/4/5,20:00,75,48
���X�X����,2_1_1,2022/4/5,21:00,51,29
���X�X����,2_1_1,2022/4/5,22:00,10,2
���X�X����,2_1_1,2022/4/5,23:00,1,1
���X�X����,2_1_1,2022/4/6,0:00,0,0
���X�X����,2_1_1,2022/4/6,1:00,1,0
���X�X����,2_1_1,2022/4/6,2:00,1,3
���X�X����,2_1_1,2022/4/6,3:00,0,2
���X�X����,2_1_1,2022/4/6,4:00,1,1
���X�X����,2_1_1,2022/4/6,5:00,8,7
���X�X����,2_1_1,2022/4/6,6:00,32,29
���X�X����,2_1_1,2022/4/6,7:00,67,264
���X�X����,2_1_1,2022/4/6,8:00,86,318
���X�X����,2_1_1,2022/4/6,9:00,100,130
���X�X����,2_1_1,2022/4/6,10:00,154,241
���X�X����,2_1_1,2022/4/6,11:00,79,179
���X�X����,2_1_1,2022/4/6,12:00,276,259
���X�X����,2_1_1,2022/4/6,13:00,404,262
���X�X����,2_1_1,2022/4/6,14:00,301,261
���X�X����,2_1_1,2022/4/6,15:00,267,170
���X�X����,2_1_1,2022/4/6,16:00,304,156
���X�X����,2_1_1,2022/4/6,17:00,306,132
���X�X����,2_1_1,2022/4/6,18:00,169,123
���X�X����,2_1_1,2022/4/6,19:00,90,72
���X�X����,2_1_1,2022/4/6,20:00,106,36
���X�X����,2_1_1,2022/4/6,21:00,74,29
���X�X����,2_1_1,2022/4/6,22:00,17,2
���X�X����,2_1_1,2022/4/6,23:00,3,1
���X�X����,2_1_1,2022/4/7,0:00,2,1
���X�X����,2_1_1,2022/4/7,1:00,0,1
���X�X����,2_1_1,2022/4/7,2:00,4,2
���X�X����,2_1_1,2022/4/7,3:00,0,1
���X�X����,2_1_1,2022/4/7,4:00,0,0
���X�X����,2_1_1,2022/4/7,5:00,8,6
���X�X����,2_1_1,2022/4/7,6:00,35,22
���X�X����,2_1_1,2022/4/7,7:00,49,123
���X�X����,2_1_1,2022/4/7,8:00,64,196
���X�X����,2_1_1,2022/4/7,9:00,124,169
���X�X����,2_1_1,2022/4/7,10:00,131,206
���X�X����,2_1_1,2022/4/7,11:00,191,351
���X�X����,2_1_1,2022/4/7,12:00,258,218
���X�X����,2_1_1,2022/4/7,13:00,215,162
���X�X����,2_1_1,2022/4/7,14:00,214,178
���X�X����,2_1_1,2022/4/7,15:00,220,140
���X�X����,2_1_1,2022/4/7,16:00,200,149
���X�X����,2_1_1,2022/4/7,17:00,222,119
���X�X����,2_1_1,2022/4/7,18:00,164,112
���X�X����,2_1_1,2022/4/7,19:00,99,63
���X�X����,2_1_1,2022/4/7,20:00,74,48
���X�X����,2_1_1,2022/4/7,21:00,73,28
���X�X����,2_1_1,2022/4/7,22:00,11,5
���X�X����,2_1_1,2022/4/7,23:00,5,1
���X�X����,2_1_1,2022/4/8,0:00,1,1
���X�X����,2_1_1,2022/4/8,1:00,2,0
���X�X����,2_1_1,2022/4/8,2:00,1,1
���X�X����,2_1_1,2022/4/8,3:00,0,2
���X�X����,2_1_1,2022/4/8,4:00,1,0
���X�X����,2_1_1,2022/4/8,5:00,11,4
���X�X����,2_1_1,2022/4/8,6:00,39,31
���X�X����,2_1_1,2022/4/8,7:00,90,354
���X�X����,2_1_1,2022/4/8,8:00,90,369
���X�X����,2_1_1,2022/4/8,9:00,95,133
���X�X����,2_1_1,2022/4/8,10:00,157,228
���X�X����,2_1_1,2022/4/8,11:00,167,227
���X�X����,2_1_1,2022/4/8,12:00,215,281
���X�X����,2_1_1,2022/4/8,13:00,253,223
���X�X����,2_1_1,2022/4/8,14:00,274,183
���X�X����,2_1_1,2022/4/8,15:00,326,182
���X�X����,2_1_1,2022/4/8,16:00,318,162
���X�X����,2_1_1,2022/4/8,17:00,318,150
���X�X����,2_1_1,2022/4/8,18:00,281,129
���X�X����,2_1_1,2022/4/8,19:00,139,119
���X�X����,2_1_1,2022/4/8,20:00,73,63
���X�X����,2_1_1,2022/4/8,21:00,92,33
���X�X����,2_1_1,2022/4/8,22:00,14,8
���X�X����,2_1_1,2022/4/8,23:00,6,1
���X�X����,2_1_1,2022/4/9,0:00,5,1
���X�X����,2_1_1,2022/4/9,1:00,3,3
���X�X����,2_1_1,2022/4/9,2:00,4,1
���X�X����,2_1_1,2022/4/9,3:00,1,2
���X�X����,2_1_1,2022/4/9,4:00,2,0
���X�X����,2_1_1,2022/4/9,5:00,8,3
���X�X����,2_1_1,2022/4/9,6:00,27,26
���X�X����,2_1_1,2022/4/9,7:00,42,72
���X�X����,2_1_1,2022/4/9,8:00,78,147
���X�X����,2_1_1,2022/4/9,9:00,113,210
���X�X����,2_1_1,2022/4/9,10:00,169,326
���X�X����,2_1_1,2022/4/9,11:00,264,393
���X�X����,2_1_1,2022/4/9,12:00,328,543
���X�X����,2_1_1,2022/4/9,13:00,433,419
���X�X����,2_1_1,2022/4/9,14:00,490,441
���X�X����,2_1_1,2022/4/9,15:00,464,321
���X�X����,2_1_1,2022/4/9,16:00,401,258
���X�X����,2_1_1,2022/4/9,17:00,333,182
���X�X����,2_1_1,2022/4/9,18:00,188,179
���X�X����,2_1_1,2022/4/9,19:00,108,121
���X�X����,2_1_1,2022/4/9,20:00,72,55
���X�X����,2_1_1,2022/4/9,21:00,85,45
���X�X����,2_1_1,2022/4/9,22:00,17,17
���X�X����,2_1_1,2022/4/9,23:00,11,1
���X�X����,2_1_1,2022/4/10,0:00,6,1
���X�X����,2_1_1,2022/4/10,1:00,5,2
���X�X����,2_1_1,2022/4/10,2:00,4,1
���X�X����,2_1_1,2022/4/10,3:00,0,0
���X�X����,2_1_1,2022/4/10,4:00,0,1
���X�X����,2_1_1,2022/4/10,5:00,5,3
���X�X����,2_1_1,2022/4/10,6:00,23,20
���X�X����,2_1_1,2022/4/10,7:00,36,47
���X�X����,2_1_1,2022/4/10,8:00,83,81
���X�X����,2_1_1,2022/4/10,9:00,118,220
���X�X����,2_1_1,2022/4/10,10:00,220,374
���X�X����,2_1_1,2022/4/10,11:00,311,411
���X�X����,2_1_1,2022/4/10,12:00,358,536
���X�X����,2_1_1,2022/4/10,13:00,452,527
���X�X����,2_1_1,2022/4/10,14:00,551,491
���X�X����,2_1_1,2022/4/10,15:00,495,355
���X�X����,2_1_1,2022/4/10,16:00,374,256
���X�X����,2_1_1,2022/4/10,17:00,262,150
���X�X����,2_1_1,2022/4/10,18:00,136,100
���X�X����,2_1_1,2022/4/10,19:00,75,66
���X�X����,2_1_1,2022/4/10,20:00,48,36
���X�X����,2_1_1,2022/4/10,21:00,37,23
���X�X����,2_1_1,2022/4/10,22:00,9,6
���X�X����,2_1_1,2022/4/10,23:00,10,0
���X�X����,2_1_1,2022/4/11,0:00,3,1
���X�X����,2_1_1,2022/4/11,1:00,0,2
���X�X����,2_1_1,2022/4/11,2:00,4,2
���X�X����,2_1_1,2022/4/11,3:00,1,0
���X�X����,2_1_1,2022/4/11,4:00,2,1
���X�X����,2_1_1,2022/4/11,5:00,4,8
���X�X����,2_1_1,2022/4/11,6:00,39,34
���X�X����,2_1_1,2022/4/11,7:00,70,435
���X�X����,2_1_1,2022/4/11,8:00,93,292
���X�X����,2_1_1,2022/4/11,9:00,128,152
���X�X����,2_1_1,2022/4/11,10:00,139,178
���X�X����,2_1_1,2022/4/11,11:00,163,185
���X�X����,2_1_1,2022/4/11,12:00,182,216
���X�X����,2_1_1,2022/4/11,13:00,211,158
���X�X����,2_1_1,2022/4/11,14:00,212,157
���X�X����,2_1_1,2022/4/11,15:00,253,145
���X�X����,2_1_1,2022/4/11,16:00,266,111
���X�X����,2_1_1,2022/4/11,17:00,265,111
���X�X����,2_1_1,2022/4/11,18:00,263,95
���X�X����,2_1_1,2022/4/11,19:00,89,66
���X�X����,2_1_1,2022/4/11,20:00,71,48
���X�X����,2_1_1,2022/4/11,21:00,53,32
���X�X����,2_1_1,2022/4/11,22:00,13,3
���X�X����,2_1_1,2022/4/11,23:00,1,1
���X�X����,2_1_1,2022/4/12,0:00,3,0
���X�X����,2_1_1,2022/4/12,1:00,1,0
���X�X����,2_1_1,2022/4/12,2:00,2,3
���X�X����,2_1_1,2022/4/12,3:00,1,1
���X�X����,2_1_1,2022/4/12,4:00,2,0
���X�X����,2_1_1,2022/4/12,5:00,13,10
���X�X����,2_1_1,2022/4/12,6:00,49,37
���X�X����,2_1_1,2022/4/12,7:00,72,346
���X�X����,2_1_1,2022/4/12,8:00,87,289
���X�X����,2_1_1,2022/4/12,9:00,106,147
���X�X����,2_1_1,2022/4/12,10:00,136,177
���X�X����,2_1_1,2022/4/12,11:00,130,159
���X�X����,2_1_1,2022/4/12,12:00,189,213
���X�X����,2_1_1,2022/4/12,13:00,168,169
���X�X����,2_1_1,2022/4/12,14:00,171,114
���X�X����,2_1_1,2022/4/12,15:00,141,128
���X�X����,2_1_1,2022/4/12,16:00,214,139
���X�X����,2_1_1,2022/4/12,17:00,275,104
���X�X����,2_1_1,2022/4/12,18:00,298,116
���X�X����,2_1_1,2022/4/12,19:00,89,85
���X�X����,2_1_1,2022/4/12,20:00,78,55
���X�X����,2_1_1,2022/4/12,21:00,60,31
���X�X����,2_1_1,2022/4/12,22:00,18,9
���X�X����,2_1_1,2022/4/12,23:00,1,1
���X�X����,2_1_1,2022/4/13,0:00,0,0
���X�X����,2_1_1,2022/4/13,1:00,3,1
���X�X����,2_1_1,2022/4/13,2:00,2,1
���X�X����,2_1_1,2022/4/13,3:00,0,0
���X�X����,2_1_1,2022/4/13,4:00,0,0
���X�X����,2_1_1,2022/4/13,5:00,9,10
���X�X����,2_1_1,2022/4/13,6:00,44,35
���X�X����,2_1_1,2022/4/13,7:00,78,367
���X�X����,2_1_1,2022/4/13,8:00,87,277
���X�X����,2_1_1,2022/4/13,9:00,98,124
���X�X����,2_1_1,2022/4/13,10:00,122,140
���X�X����,2_1_1,2022/4/13,11:00,139,163
���X�X����,2_1_1,2022/4/13,12:00,158,168
���X�X����,2_1_1,2022/4/13,13:00,169,158
���X�X����,2_1_1,2022/4/13,14:00,173,140
���X�X����,2_1_1,2022/4/13,15:00,142,104
���X�X����,2_1_1,2022/4/13,16:00,359,123
���X�X����,2_1_1,2022/4/13,17:00,315,94
���X�X����,2_1_1,2022/4/13,18:00,153,101
���X�X����,2_1_1,2022/4/13,19:00,100,109
���X�X����,2_1_1,2022/4/13,20:00,87,46
���X�X����,2_1_1,2022/4/13,21:00,61,32
���X�X����,2_1_1,2022/4/13,22:00,20,11
���X�X����,2_1_1,2022/4/13,23:00,10,4
���X�X����,2_1_1,2022/4/14,0:00,2,0
���X�X����,2_1_1,2022/4/14,1:00,5,1
���X�X����,2_1_1,2022/4/14,2:00,0,1
���X�X����,2_1_1,2022/4/14,3:00,1,0
���X�X����,2_1_1,2022/4/14,4:00,1,2
���X�X����,2_1_1,2022/4/14,5:00,4,2
���X�X����,2_1_1,2022/4/14,6:00,51,39
���X�X����,2_1_1,2022/4/14,7:00,83,200
���X�X����,2_1_1,2022/4/14,8:00,52,217
���X�X����,2_1_1,2022/4/14,9:00,92,113
���X�X����,2_1_1,2022/4/14,10:00,77,107
���X�X����,2_1_1,2022/4/14,11:00,100,112
���X�X����,2_1_1,2022/4/14,12:00,103,137
���X�X����,2_1_1,2022/4/14,13:00,118,83
���X�X����,2_1_1,2022/4/14,14:00,86,69
���X�X����,2_1_1,2022/4/14,15:00,132,95
���X�X����,2_1_1,2022/4/14,16:00,120,107
���X�X����,2_1_1,2022/4/14,17:00,243,85
���X�X����,2_1_1,2022/4/14,18:00,148,66
���X�X����,2_1_1,2022/4/14,19:00,50,46
���X�X����,2_1_1,2022/4/14,20:00,50,39
���X�X����,2_1_1,2022/4/14,21:00,63,20
���X�X����,2_1_1,2022/4/14,22:00,15,6
���X�X����,2_1_1,2022/4/14,23:00,4,0
���X�X����,2_1_1,2022/4/15,0:00,2,0
���X�X����,2_1_1,2022/4/15,1:00,2,1
���X�X����,2_1_1,2022/4/15,2:00,1,0
���X�X����,2_1_1,2022/4/15,3:00,0,2
���X�X����,2_1_1,2022/4/15,4:00,2,1
���X�X����,2_1_1,2022/4/15,5:00,9,11
���X�X����,2_1_1,2022/4/15,6:00,48,24
���X�X����,2_1_1,2022/4/15,7:00,84,366
���X�X����,2_1_1,2022/4/15,8:00,109,350
���X�X����,2_1_1,2022/4/15,9:00,141,174
���X�X����,2_1_1,2022/4/15,10:00,216,194
���X�X����,2_1_1,2022/4/15,11:00,231,268
���X�X����,2_1_1,2022/4/15,12:00,265,264
���X�X����,2_1_1,2022/4/15,13:00,273,196
���X�X����,2_1_1,2022/4/15,14:00,214,190
���X�X����,2_1_1,2022/4/15,15:00,248,110
���X�X����,2_1_1,2022/4/15,16:00,258,170
���X�X����,2_1_1,2022/4/15,17:00,296,91
���X�X����,2_1_1,2022/4/15,18:00,294,96
���X�X����,2_1_1,2022/4/15,19:00,95,84
���X�X����,2_1_1,2022/4/15,20:00,68,48
���X�X����,2_1_1,2022/4/15,21:00,97,38
���X�X����,2_1_1,2022/4/15,22:00,21,5
���X�X����,2_1_1,2022/4/15,23:00,4,1
���X�X����,2_1_1,2022/4/16,0:00,7,2
���X�X����,2_1_1,2022/4/16,1:00,7,0
���X�X����,2_1_1,2022/4/16,2:00,1,1
���X�X����,2_1_1,2022/4/16,3:00,3,0
���X�X����,2_1_1,2022/4/16,4:00,0,1
���X�X����,2_1_1,2022/4/16,5:00,4,8
���X�X����,2_1_1,2022/4/16,6:00,28,29
���X�X����,2_1_1,2022/4/16,7:00,47,111
���X�X����,2_1_1,2022/4/16,8:00,85,108
���X�X����,2_1_1,2022/4/16,9:00,107,160
���X�X����,2_1_1,2022/4/16,10:00,146,248
���X�X����,2_1_1,2022/4/16,11:00,209,306
���X�X����,2_1_1,2022/4/16,12:00,246,393
���X�X����,2_1_1,2022/4/16,13:00,360,382
���X�X����,2_1_1,2022/4/16,14:00,388,346
���X�X����,2_1_1,2022/4/16,15:00,445,225
���X�X����,2_1_1,2022/4/16,16:00,313,275
���X�X����,2_1_1,2022/4/16,17:00,270,209
���X�X����,2_1_1,2022/4/16,18:00,186,170
���X�X����,2_1_1,2022/4/16,19:00,138,143
���X�X����,2_1_1,2022/4/16,20:00,67,38
���X�X����,2_1_1,2022/4/16,21:00,76,37
���X�X����,2_1_1,2022/4/16,22:00,24,8
���X�X����,2_1_1,2022/4/16,23:00,11,2
���X�X����,2_1_1,2022/4/17,0:00,1,1
���X�X����,2_1_1,2022/4/17,1:00,0,0
���X�X����,2_1_1,2022/4/17,2:00,2,0
���X�X����,2_1_1,2022/4/17,3:00,1,0
���X�X����,2_1_1,2022/4/17,4:00,0,0
���X�X����,2_1_1,2022/4/17,5:00,11,5
���X�X����,2_1_1,2022/4/17,6:00,28,21
���X�X����,2_1_1,2022/4/17,7:00,37,87
���X�X����,2_1_1,2022/4/17,8:00,65,77
���X�X����,2_1_1,2022/4/17,9:00,86,173
���X�X����,2_1_1,2022/4/17,10:00,127,289
���X�X����,2_1_1,2022/4/17,11:00,222,388
���X�X����,2_1_1,2022/4/17,12:00,326,383
���X�X����,2_1_1,2022/4/17,13:00,446,421
���X�X����,2_1_1,2022/4/17,14:00,403,374
���X�X����,2_1_1,2022/4/17,15:00,411,299
���X�X����,2_1_1,2022/4/17,16:00,393,270
���X�X����,2_1_1,2022/4/17,17:00,262,115
���X�X����,2_1_1,2022/4/17,18:00,149,105
���X�X����,2_1_1,2022/4/17,19:00,68,102
���X�X����,2_1_1,2022/4/17,20:00,63,44
���X�X����,2_1_1,2022/4/17,21:00,47,27
���X�X����,2_1_1,2022/4/17,22:00,12,2
���X�X����,2_1_1,2022/4/17,23:00,4,3
���X�X����,2_1_1,2022/4/18,0:00,2,0
���X�X����,2_1_1,2022/4/18,1:00,0,0
���X�X����,2_1_1,2022/4/18,2:00,1,1
���X�X����,2_1_1,2022/4/18,3:00,1,3
���X�X����,2_1_1,2022/4/18,4:00,0,0
���X�X����,2_1_1,2022/4/18,5:00,11,9
���X�X����,2_1_1,2022/4/18,6:00,41,45
���X�X����,2_1_1,2022/4/18,7:00,97,418
���X�X����,2_1_1,2022/4/18,8:00,86,326
���X�X����,2_1_1,2022/4/18,9:00,137,168
���X�X����,2_1_1,2022/4/18,10:00,137,190
���X�X����,2_1_1,2022/4/18,11:00,143,203
���X�X����,2_1_1,2022/4/18,12:00,182,184
���X�X����,2_1_1,2022/4/18,13:00,209,153
���X�X����,2_1_1,2022/4/18,14:00,173,138
���X�X����,2_1_1,2022/4/18,15:00,256,143
���X�X����,2_1_1,2022/4/18,16:00,216,128
���X�X����,2_1_1,2022/4/18,17:00,305,120
���X�X����,2_1_1,2022/4/18,18:00,347,115
���X�X����,2_1_1,2022/4/18,19:00,81,84
���X�X����,2_1_1,2022/4/18,20:00,63,51
���X�X����,2_1_1,2022/4/18,21:00,55,27
���X�X����,2_1_1,2022/4/18,22:00,30,16
���X�X����,2_1_1,2022/4/18,23:00,5,0
���X�X����,2_1_1,2022/4/19,0:00,3,0
���X�X����,2_1_1,2022/4/19,1:00,2,0
���X�X����,2_1_1,2022/4/19,2:00,0,1
���X�X����,2_1_1,2022/4/19,3:00,0,0
���X�X����,2_1_1,2022/4/19,4:00,4,0
���X�X����,2_1_1,2022/4/19,5:00,17,17
���X�X����,2_1_1,2022/4/19,6:00,49,45
���X�X����,2_1_1,2022/4/19,7:00,84,408
���X�X����,2_1_1,2022/4/19,8:00,103,328
���X�X����,2_1_1,2022/4/19,9:00,121,177
���X�X����,2_1_1,2022/4/19,10:00,156,186
���X�X����,2_1_1,2022/4/19,11:00,178,230
���X�X����,2_1_1,2022/4/19,12:00,203,181
���X�X����,2_1_1,2022/4/19,13:00,183,168
���X�X����,2_1_1,2022/4/19,14:00,164,157
���X�X����,2_1_1,2022/4/19,15:00,194,101
���X�X����,2_1_1,2022/4/19,16:00,247,140
���X�X����,2_1_1,2022/4/19,17:00,324,114
���X�X����,2_1_1,2022/4/19,18:00,349,111
���X�X����,2_1_1,2022/4/19,19:00,87,102
���X�X����,2_1_1,2022/4/19,20:00,86,64
���X�X����,2_1_1,2022/4/19,21:00,100,30
���X�X����,2_1_1,2022/4/19,22:00,29,8
���X�X����,2_1_1,2022/4/19,23:00,6,0
���X�X����,2_1_1,2022/4/20,0:00,1,0
���X�X����,2_1_1,2022/4/20,1:00,0,1
���X�X����,2_1_1,2022/4/20,2:00,2,0
���X�X����,2_1_1,2022/4/20,3:00,1,0
���X�X����,2_1_1,2022/4/20,4:00,1,2
���X�X����,2_1_1,2022/4/20,5:00,14,18
���X�X����,2_1_1,2022/4/20,6:00,41,42
���X�X����,2_1_1,2022/4/20,7:00,100,426
���X�X����,2_1_1,2022/4/20,8:00,95,350
���X�X����,2_1_1,2022/4/20,9:00,114,147
���X�X����,2_1_1,2022/4/20,10:00,150,190
���X�X����,2_1_1,2022/4/20,11:00,164,204
���X�X����,2_1_1,2022/4/20,12:00,183,212
���X�X����,2_1_1,2022/4/20,13:00,176,174
���X�X����,2_1_1,2022/4/20,14:00,151,148
���X�X����,2_1_1,2022/4/20,15:00,241,147
���X�X����,2_1_1,2022/4/20,16:00,410,135
���X�X����,2_1_1,2022/4/20,17:00,291,141
���X�X����,2_1_1,2022/4/20,18:00,226,143
���X�X����,2_1_1,2022/4/20,19:00,85,78
���X�X����,2_1_1,2022/4/20,20:00,80,51
���X�X����,2_1_1,2022/4/20,21:00,87,35
���X�X����,2_1_1,2022/4/20,22:00,13,12
���X�X����,2_1_1,2022/4/20,23:00,5,2
���X�X����,2_1_1,2022/4/21,0:00,6,0
���X�X����,2_1_1,2022/4/21,1:00,1,0
���X�X����,2_1_1,2022/4/21,2:00,3,0
���X�X����,2_1_1,2022/4/21,3:00,2,0
���X�X����,2_1_1,2022/4/21,4:00,3,0
���X�X����,2_1_1,2022/4/21,5:00,10,10
���X�X����,2_1_1,2022/4/21,6:00,31,37
���X�X����,2_1_1,2022/4/21,7:00,70,313
���X�X����,2_1_1,2022/4/21,8:00,74,281
���X�X����,2_1_1,2022/4/21,9:00,123,145
���X�X����,2_1_1,2022/4/21,10:00,143,174
���X�X����,2_1_1,2022/4/21,11:00,128,179
���X�X����,2_1_1,2022/4/21,12:00,199,168
���X�X����,2_1_1,2022/4/21,13:00,214,135
���X�X����,2_1_1,2022/4/21,14:00,139,115
���X�X����,2_1_1,2022/4/21,15:00,135,81
���X�X����,2_1_1,2022/4/21,16:00,144,100
���X�X����,2_1_1,2022/4/21,17:00,254,96
���X�X����,2_1_1,2022/4/21,18:00,192,88
���X�X����,2_1_1,2022/4/21,19:00,62,75
���X�X����,2_1_1,2022/4/21,20:00,60,30
���X�X����,2_1_1,2022/4/21,21:00,69,40
���X�X����,2_1_1,2022/4/21,22:00,22,7
���X�X����,2_1_1,2022/4/21,23:00,11,0
���X�X����,2_1_1,2022/4/22,0:00,3,0
���X�X����,2_1_1,2022/4/22,1:00,1,1
���X�X����,2_1_1,2022/4/22,2:00,1,0
���X�X����,2_1_1,2022/4/22,3:00,0,0
���X�X����,2_1_1,2022/4/22,4:00,2,1
���X�X����,2_1_1,2022/4/22,5:00,10,15
���X�X����,2_1_1,2022/4/22,6:00,37,32
���X�X����,2_1_1,2022/4/22,7:00,76,301
���X�X����,2_1_1,2022/4/22,8:00,99,302
���X�X����,2_1_1,2022/4/22,9:00,114,148
���X�X����,2_1_1,2022/4/22,10:00,185,358
���X�X����,2_1_1,2022/4/22,11:00,315,432
���X�X����,2_1_1,2022/4/22,12:00,463,431
���X�X����,2_1_1,2022/4/22,13:00,400,238
���X�X����,2_1_1,2022/4/22,14:00,163,152
���X�X����,2_1_1,2022/4/22,15:00,262,162
���X�X����,2_1_1,2022/4/22,16:00,229,158
���X�X����,2_1_1,2022/4/22,17:00,310,169
���X�X����,2_1_1,2022/4/22,18:00,351,150
���X�X����,2_1_1,2022/4/22,19:00,99,126
���X�X����,2_1_1,2022/4/22,20:00,76,60
���X�X����,2_1_1,2022/4/22,21:00,78,48
���X�X����,2_1_1,2022/4/22,22:00,31,12
���X�X����,2_1_1,2022/4/22,23:00,8,3
���X�X����,2_1_1,2022/4/23,0:00,3,0
���X�X����,2_1_1,2022/4/23,1:00,2,3
���X�X����,2_1_1,2022/4/23,2:00,0,0
���X�X����,2_1_1,2022/4/23,3:00,2,3
���X�X����,2_1_1,2022/4/23,4:00,2,1
���X�X����,2_1_1,2022/4/23,5:00,15,15
���X�X����,2_1_1,2022/4/23,6:00,28,23
���X�X����,2_1_1,2022/4/23,7:00,49,73
���X�X����,2_1_1,2022/4/23,8:00,73,110
���X�X����,2_1_1,2022/4/23,9:00,139,219
���X�X����,2_1_1,2022/4/23,10:00,154,269
���X�X����,2_1_1,2022/4/23,11:00,217,407
���X�X����,2_1_1,2022/4/23,12:00,296,373
���X�X����,2_1_1,2022/4/23,13:00,293,372
���X�X����,2_1_1,2022/4/23,14:00,398,312
���X�X����,2_1_1,2022/4/23,15:00,332,281
���X�X����,2_1_1,2022/4/23,16:00,335,229
���X�X����,2_1_1,2022/4/23,17:00,244,160
���X�X����,2_1_1,2022/4/23,18:00,150,151
���X�X����,2_1_1,2022/4/23,19:00,104,92
���X�X����,2_1_1,2022/4/23,20:00,77,37
���X�X����,2_1_1,2022/4/23,21:00,77,31
���X�X����,2_1_1,2022/4/23,22:00,26,12
���X�X����,2_1_1,2022/4/23,23:00,7,2
���X�X����,2_1_1,2022/4/24,0:00,5,1
���X�X����,2_1_1,2022/4/24,1:00,2,0
���X�X����,2_1_1,2022/4/24,2:00,2,3
���X�X����,2_1_1,2022/4/24,3:00,2,0
���X�X����,2_1_1,2022/4/24,4:00,1,2
���X�X����,2_1_1,2022/4/24,5:00,4,6
���X�X����,2_1_1,2022/4/24,6:00,14,11
���X�X����,2_1_1,2022/4/24,7:00,27,41
���X�X����,2_1_1,2022/4/24,8:00,67,72
���X�X����,2_1_1,2022/4/24,9:00,75,149
���X�X����,2_1_1,2022/4/24,10:00,127,254
���X�X����,2_1_1,2022/4/24,11:00,181,305
���X�X����,2_1_1,2022/4/24,12:00,258,359
���X�X����,2_1_1,2022/4/24,13:00,409,370
���X�X����,2_1_1,2022/4/24,14:00,415,343
���X�X����,2_1_1,2022/4/24,15:00,324,242
���X�X����,2_1_1,2022/4/24,16:00,257,195
���X�X����,2_1_1,2022/4/24,17:00,233,147
���X�X����,2_1_1,2022/4/24,18:00,117,122
���X�X����,2_1_1,2022/4/24,19:00,77,55
���X�X����,2_1_1,2022/4/24,20:00,56,23
���X�X����,2_1_1,2022/4/24,21:00,27,20
���X�X����,2_1_1,2022/4/24,22:00,4,8
���X�X����,2_1_1,2022/4/24,23:00,2,1
���X�X����,2_1_1,2022/4/25,0:00,1,0
���X�X����,2_1_1,2022/4/25,1:00,1,1
���X�X����,2_1_1,2022/4/25,2:00,1,4
���X�X����,2_1_1,2022/4/25,3:00,1,0
���X�X����,2_1_1,2022/4/25,4:00,0,0
���X�X����,2_1_1,2022/4/25,5:00,9,10
���X�X����,2_1_1,2022/4/25,6:00,42,29
���X�X����,2_1_1,2022/4/25,7:00,88,316
���X�X����,2_1_1,2022/4/25,8:00,97,333
���X�X����,2_1_1,2022/4/25,9:00,117,162
���X�X����,2_1_1,2022/4/25,10:00,164,186
���X�X����,2_1_1,2022/4/25,11:00,185,204
���X�X����,2_1_1,2022/4/25,12:00,250,244
���X�X����,2_1_1,2022/4/25,13:00,287,171
���X�X����,2_1_1,2022/4/25,14:00,192,180
���X�X����,2_1_1,2022/4/25,15:00,282,127
���X�X����,2_1_1,2022/4/25,16:00,186,147
���X�X����,2_1_1,2022/4/25,17:00,310,136
���X�X����,2_1_1,2022/4/25,18:00,282,124
���X�X����,2_1_1,2022/4/25,19:00,100,96
���X�X����,2_1_1,2022/4/25,20:00,84,57
���X�X����,2_1_1,2022/4/25,21:00,60,28
���X�X����,2_1_1,2022/4/25,22:00,28,5
���X�X����,2_1_1,2022/4/25,23:00,6,6
���X�X����,2_1_1,2022/4/26,0:00,0,1
���X�X����,2_1_1,2022/4/26,1:00,2,0
���X�X����,2_1_1,2022/4/26,2:00,0,0
���X�X����,2_1_1,2022/4/26,3:00,4,0
���X�X����,2_1_1,2022/4/26,4:00,2,0